#timestamp,LO_Frequency,Hit,StdDev 
1591110015.2,286047001.2,N
1591110035.1,286047000.8,N
1591110036.0,286047000.8,N
1591110055.8,286046996.7,N
1591110075.6,286046997.1,N
1591110095.5,286046995.1,N
1591110115.3,286046995.1,N
1591110135.2,286046997.2,N
1591110155.9,286046995.0,N
1591110175.7,286046994.9,N
1591110195.6,286046997.1,N
1591110215.4,286046999.6,N
1591110235.2,286046997.0,N
1591110255.1,286046999.6,N
1591110256.0,286046999.6,N
1591110275.8,286046996.5,N
1591110295.7,286046996.9,N
1591110315.5,286046999.2,N
1591110335.3,286046999.0,N
1591110355.2,286046998.8,N
1591110375.0,286046998.8,N
1591110375.9,286046998.8,N
1591110395.7,286046999.2,N
1591110415.6,286046997.2,N
1591110435.4,286046997.4,N
1591110455.3,286046997.3,N
1591110475.1,286046999.6,N
1591110476.0,286046999.6,N
1591110495.8,286046997.0,N
1591110515.7,286046997.9,N
1591110535.5,286046995.6,N
1591110555.3,286046996.1,N
1591110575.2,286046995.4,N
1591110595.0,286046996.2,N
1591110595.9,286046996.2,N
1591110615.8,286046995.7,N
1591110635.6,286046997.5,N
1591110655.4,286046995.3,Y
1591110675.3,286046999.2,P
1591110695.1,286046998.3,N
1591110715.9,286046998.8,N
1591110735.7,286046998.4,N
1591110755.5,286046999.2,N
1591110775.4,286046996.5,Y
1591110795.2,286046998.5,P
1591110815.0,286046998.4,P
1591110815.9,286046998.4,P
1591110835.8,286046998.9,Y
1591110855.6,286046998.1,P
1591110875.5,286046998.8,P
1591110895.3,286046998.1,P
1591110915.1,286047000.8,N
1591110935.9,286046999.7,N
1591110955.7,286047000.7,N
1591110975.5,286047000.5,N
1591110995.4,286047000.7,N
1591111015.2,286047000.6,N
1591111035.0,286047000.8,N
1591111036.0,286047000.8,N
1591111055.8,286046998.5,N
1591111075.6,286046999.0,N
1591111095.5,286046999.6,N
1591111115.3,286046999.0,N
1591111135.1,286046996.8,Y
1591111155.9,286046999.5,P
1591111175.7,286046998.9,P
1591111195.5,286046999.1,N
1591111215.4,286046999.4,N
1591111235.2,286046999.0,Y
1591111255.1,286046998.9,P
1591111256.0,286046998.9,P
1591111275.8,286046999.6,N
1591111295.6,286046998.7,Y
1591111315.5,286047000.3,P
1591111335.3,286047000.5,N
1591111355.2,286047000.2,N
1591111375.9,286047000.0,N
1591111395.7,286047000.8,N
1591111415.6,286047001.0,N
1591111435.4,286047000.7,N
1591111455.2,286047001.2,N
1591111475.1,286047000.8,N
1591111476.0,286047000.8,N
1591111495.8,286047000.7,N
1591111515.7,286046998.2,Y
1591111535.5,286046998.5,P
1591111555.3,286046998.9,N
1591111575.2,286046999.4,N
1591111595.9,286046998.7,N
1591111615.7,286047002.7,Y
1591111635.6,286047002.6,P
1591111655.4,286046999.8,N
1591111675.3,286047000.7,N
1591111695.1,286047000.9,N
1591111696.0,286047000.9,N
1591111715.8,286047002.7,N
1591111735.7,286047002.4,N
1591111755.5,286047000.3,N
1591111775.3,286047000.6,N
1591111795.2,286047000.0,N
1591111815.0,286047000.2,N
1591111815.9,286047000.2,N
1591111835.8,286046999.7,N
1591111855.6,286047002.5,N
1591111875.4,286047002.7,N
1591111895.3,286047001.8,N
1591111915.1,286047003.9,Y
1591111935.8,286047002.3,P
1591111955.7,286047002.2,P
1591111975.5,286047000.6,N
1591111995.4,286047000.6,N
1591112015.2,286047001.2,N
1591112035.0,286046998.9,N
1591112035.9,286046998.9,N
1591112055.8,286046998.5,N
1591112075.6,286046998.4,N
1591112095.5,286046999.5,N
1591112115.3,286046998.6,N
1591112135.1,286046998.6,N
1591112155.9,286046999.3,N
1591112175.7,286046996.7,N
1591112195.5,286046996.5,N
1591112215.4,286046999.4,N
1591112235.2,286047001.1,N
1591112255.1,286046998.2,N
1591112256.0,286046998.2,N
1591112275.8,286046998.4,N
1591112295.6,286046998.9,N
1591112315.5,286046998.4,N
1591112335.3,286046998.6,N
1591112355.2,286046999.7,N
1591112375.9,286046999.4,N
1591112395.7,286047000.4,N
1591112415.6,286046999.7,N
1591112435.4,286047000.2,N
1591112455.2,286047000.0,N
1591112475.1,286046999.7,N
1591112476.0,286046999.7,N
1591112495.8,286047002.4,N
1591112515.7,286047002.4,N
1591112535.5,286047002.2,N
1591112555.3,286047002.1,N
1591112575.2,286047001.6,N
1591112595.0,286047004.2,N
1591112595.9,286047004.2,N
1591112615.7,286047001.7,N
1591112635.6,286047004.4,N
1591112655.4,286047004.3,N
1591112675.3,286047003.8,N
1591112695.1,286047003.5,N
1591112696.0,286047003.5,N
1591112715.8,286047004.3,N
1591112735.7,286047003.6,N
1591112755.5,286047003.7,N
1591112775.3,286047004.0,N
1591112795.2,286047003.9,N
1591112815.0,286047001.8,N
1591112815.9,286047001.8,N
1591112835.8,286047003.9,N
1591112855.6,286047003.9,N
1591112875.4,286047003.7,N
1591112895.3,286047003.9,N
1591112915.1,286047005.6,Y
1591112935.9,286047001.9,P
1591112955.7,286047000.2,N
1591112975.5,286047001.0,N
1591112995.4,286046998.2,N
1591113015.2,286046999.0,N
1591113035.0,286047000.5,N
1591113035.9,286047000.5,N
1591113055.8,286047000.1,N
1591113075.6,286047002.3,N
1591113095.5,286046999.7,N
1591113115.3,286047002.1,N
1591113135.1,286047003.7,N
1591113155.9,286047002.0,N
1591113175.7,286047002.1,N
1591113195.5,286047001.9,N
1591113215.4,286047002.3,N
1591113235.2,286047001.6,N
1591113255.1,286047002.6,N
1591113256.0,286047002.6,N
1591113275.8,286047002.4,N
1591113295.6,286047000.1,N
1591113315.5,286047002.5,N
1591113335.3,286046999.7,N
1591113355.2,286047002.5,N
1591113375.9,286047002.0,N
1591113395.7,286047003.7,N
1591113415.6,286047003.6,N
1591113435.4,286047004.2,N
1591113455.2,286047003.7,N
1591113475.1,286047004.3,N
1591113476.0,286047004.3,N
1591113495.8,286047004.1,N
1591113515.7,286047006.0,Y
1591113535.5,286046999.7,P
1591113555.3,286047002.4,N
1591113575.2,286047002.6,N
1591113595.0,286046999.8,N
1591113595.9,286046999.8,N
